Location: Sollberg
(42.7389°N, 93.6369°W)
Time: 15:19:14
(UTC+00:00)

ISS - Visible Passes

Search period start: 15 December 2025 00:00
Search period end: 25 December 2025 00:00
Orbit: 416 x 420 km, 51.6° (Epoch: 14 December)

Date Brightness Start Highest point End Pass type
(mag) Time Alt. Az. Time Alt. Az. Time Alt. Az.
15 Dec -0.6 10:50:49 14° ESE 10:50:49 14° ESE 10:52:13 10° E visible
15 Dec -3.9 12:23:49 13° WSW 12:26:45 77° NNW 12:30:09 10° NE visible
16 Dec -3.5 11:38:38 63° SSE 11:38:46 64° SE 11:42:06 10° ENE visible
17 Dec -0.7 10:53:10 15° ENE 10:53:10 15° ENE 10:53:57 10° ENE visible
17 Dec -3.0 12:26:08 23° WNW 12:27:35 35° NNW 12:30:44 10° NE visible
18 Dec -2.7 11:40:27 36° NNE 11:40:27 36° NNE 11:42:46 10° NE visible
19 Dec -0.5 10:54:37 11° NE 10:54:37 11° NE 10:54:45 10° NE visible
19 Dec -2.2 12:27:32 20° NW 12:28:32 22° NNW 12:31:16 10° NE visible
20 Dec -1.8 11:41:35 21° NNE 11:41:35 21° NNE 11:43:14 10° NE visible
21 Dec -1.9 12:28:27 16° NNW 12:29:32 18° N 12:31:57 10° NE visible
22 Dec -1.5 11:42:20 17° NNE 11:42:20 17° NNE 11:43:45 10° NE visible
23 Dec -1.8 12:29:05 15° NNW 12:30:30 18° N 12:32:58 10° NE visible
24 Dec -1.5 11:42:52 17° NNE 11:42:52 17° NNE 11:44:32 10° NE visible
